Regional Weather Roundup
Issued by NWS Wakefield, VA

Current Version | Previous Version | Text Only | Print | Product List | Glossary Off
Versions: 1 2 3 4 5 6 7 8 9 10 11 12 13 14 15 16 17 18 19 20 21 22 23 24 25 26 27 28 29 30 31 32 33 34 35 36 37 38 39 40 41 42 43 44 45 46 47

000
ASUS41 KAKQ 021114
RWRAKQ

REGIONAL WEATHER ROUNDUP
NATIONAL WEATHER SERVICE WAKEFIELD VA
600 AM EST TUE MAR 02 2021

Note: "fair" indicates few or no clouds below 12,000 feet with no
significant weather and/or obstructions to visibility. * = Denotes
station may not report precipitation (e.g., rain,snow,etc.),
thunder or fog.

VAZ042-051-052>054-056-021200-
NORTHERN VIRGINIA

CITY           SKY/WX    TMP DP  RH WIND       PRES   REMARKS
WASH NATIONAL  CLEAR     32  13  45 N12G25    30.26R WCI  23
DULLES         CLEAR     31  11  43 N14G20    30.26R WCI  21
FORT BELVOIR   CLEAR     33   9  36 NW8       30.26R
QUANTICO       CLEAR     35  13  40 NW10      30.28R
FREDERICKSBRG* CLEAR     35  14  42 N9G18     30.26R
STAFFORD*      CLEAR     33   6  32 N10       30.30R WCI  24
WARRENTON      CLEAR     32  11  42 N6        30.26R
CULPEPER*      CLEAR     33  14  47 N8        30.27R
MANASSAS*      CLEAR     31  16  54 N12       30.28R WCI  22
LEESBURG*      CLEAR     30  14  51 N9G22     30.28R
WINCHESTER     CLEAR     28  14  54 NW9       30.23R
FRONT ROYAL*   FAIR      30  12  47 CALM      30.24R
LURAY*         FAIR      32  18  55 N6        30.24R
$$

VAZ048-049-060>072-079>083-021200-
CENTRAL AND SOUTH CENTRAL VIRGINIA

CITY           SKY/WX    TMP DP  RH WIND       PRES   REMARKS
RICHMOND       CLEAR     34  24  67 NE10      30.24R
CHESTERFIELD*  NOT AVBL
PETERSBURG*    PTCLDY    29  26  89 CALM      30.25R
HANOVER        CLEAR     33  24  69 VRB5      30.25R
TAPPAHANNOCK*  CLEAR     34  20  56 N6        30.24R
QUINTON*       FAIR      34  24  66 CALM      30.24R
CHARLOTTSVILLE CLEAR     34  15  46 NE5       30.23R
GORDONSVILLE*  FAIR      35  18  50 NW7       30.23R
ORANGE*        CLEAR     32  19  59 N6        30.23R
LOUISA*        CLEAR     32  19  58 N5        30.27R
BUMPASS*       NOT AVBL
FARMVILLE*     NOT AVBL
CREWE*         NOT AVBL
FORT PICKETT*  FAIR      31  25  77 MISG      30.23R
CHASE CITY*    FAIR      31  27  85 CALM      30.23R
CLARKSVILLE*   FAIR      36  23  60 W3        30.22S
SOUTH HILL*    PTCLDY    33  24  70 CALM      30.28R
LAWRENCEVILLE* FAIR      33  29  84 CALM      30.23R
EMPORIA*       PTCLDY    35  26  68 NW5       30.24R
$$

VAZ088>098-021200-
SOUTHEAST VIRGINIA

CITY           SKY/WX    TMP DP  RH WIND       PRES   REMARKS
NORFOLK        PTCLDY    41  24  51 N15       30.21R
VIRGINIA BEACH PTCLDY    41  23  48 N16G23    30.22R
NORFOLK NAVAL  PTCLDY    40  23  50 N14       30.24R
WEST POINT*    CLEAR     33  23  66 CALM      30.25R
SALUDA*        FAIR      36  20  53 NW10G18   30.23R
NEWPORT NEWS   PTCLDY    35  24  64 N5        30.23R
LANGLEY AFB    PTCLDY    37  26  62 N10       30.22R
FORT EUSTIS    CLEAR     38  23  54 N7        30.22R
WILLIAMSBURG*  PTCLDY    36  27  69 N6        30.25R
HR EXEC AP*    FAIR      38  24  57 VRB5      30.24R
FRANKLIN*      PTCLDY    35  27  73 N3        30.24R
US460-WAKEFLD  PTCLDY    33  29  85 CALM      30.24R
$$

VAZ020-022-025-037-045-021200-
WEST CENTRAL AND SOUTHWEST VIRGINIA

CITY           SKY/WX    TMP DP  RH WIND       PRES   REMARKS
STAUNTON*      CLEAR     29  14  52 N3        30.24R
WAYNESBORO*    FAIR      30  11  45 CALM      30.21R
HOT SPRINGS VA CLEAR     22  10  59 W21       30.08R WCI   6
LYNCHBURG      PTCLDY    35  18  49 N6        30.21R
DANVILLE       MOCLDY    36  23  59 N8        30.23R
SOUTH BOSTON*  FAIR      36  21  53 NW5       30.23R
MARTINSVILLE   MOCLDY    36  21  54 N7        30.25R
ROANOKE        CLEAR     33  12  41 NW6       30.24R
BLACKSBURG     PTCLDY    29  19  67 W3        30.22R
DUBLIN*        PTCLDY    29  17  60 NW5       30.20S
MARION*        PTCLDY    31  19  60 W7        30.22R
HILLSVILLE*    PTCLDY    30  15  54 NW18G26   30.13R WCI  18
RICHLANDS*     FAIR      26  20  80 N7        30.21S
WISE*          MOCLDY    28  23  80 NW3       30.23S
ABINGDON*      MOCLDY    30  20  66 CALM      30.23S
$$

MDZ021>025-VAZ099-100-021200-
SOUTHERN MARYLAND AND THE DELMARVA PENINSULA

CITY           SKY/WX    TMP DP  RH WIND       PRES   REMARKS
PATUXENT RIVER CLEAR     35  17  47 NW18G25   30.24R WCI  24
BAY BRIDGE APT CLEAR     32  10  40 NW16G30   30.25R WCI  21
LEONARDTOWN    CLEAR     32  14  47 NW3       30.26R
DOVER          CLEAR     29  12  49 NW14      30.21R WCI  18
GEORGETOWN     CLEAR     33  14  45 N9        30.20R
EASTON         CLEAR     34  12  40 W22G29    30.26R WCI  22
CAMBRIDGE      NOT AVBL
SALISBURY      CLEAR     33  17  51 NW15G23   30.20R WCI  23
TANGIER        NOT AVBL
OCEAN CITY     CLEAR     33  18  53 N7        30.19R
WALLOPS ISLAND CLEAR     34  16  47 NW13G23   30.20R WCI  25
ACCOMACK*      CLEAR     34  20  55 NW14G22   30.22R WCI  25
$$

NCZ012>017-030>032-021200-
NORTH CENTRAL AND EASTERN NORTH CAROLINA

CITY           SKY/WX    TMP DP  RH WIND       PRES   REMARKS
ROANOKE RAPIDS FAIR      34  32  93 CALM      30.22R
RALEIGH        MOCLDY    39  27  62 CALM      30.22R
ELIZABETH CITY PTCLDY    42  27  55 N9        30.21R
AHOSKIE*       PTCLDY    38  26  61 CALM      30.22R
EDENTON*       PTCLDY    41  32  70 N6        30.21R
CURRITUCK*     PTCLDY    40  31  68 N8        30.21R
KILL DEVIL HLS PTCLDY    41  29  61 N8        30.20R
MANTEO         PTCLDY    42  28  56 N20G28    30.21R
CAPE HATTERAS  MOCLDY    48  34  58 NE9G18    30.18R
TARBORO*       FAIR      40  26  56 NW3       30.22S
GOLDSBORO      CLOUDY    44  24  45 NW6       30.20R
WASHINGTON     MOCLDY    42  28  58 NW5       30.21S
GREENVILLE     MOCLDY    43  28  56 N5        30.22S
NEW BERN       MOCLDY    46  29  51 N9        30.21R
WILMINGTON     CLOUDY    48  26  42 N13       30.19R
$$

VAZ048-021200-
ELSEWHERE

CITY           SKY/WX    TMP DP  RH WIND       PRES   REMARKS
HARRISBURG PA  CLEAR     25   4  40 NW26G37   30.23R WCI   9
BALTIMORE      PTCLDY    30   8  39 NW13G22   30.24R WCI  20
ANNAPOLIS      CLEAR     33  16  49 NW20G28   30.24R WCI  21
ANDREWS AFB    CLEAR     31  12  45 NW13      30.23R WCI  21
PHILADELPHIA   CLEAR     26   3  37 NW20G31   30.22R WCI  12
HENDERSON NC   MOCLDY    36  18  49 W3        30.22R
GREENSBORO     MOCLDY    38  22  52 N7        30.19R
ROCKY MOUNT    MOCLDY    41  24  51 N6        30.22R
$$

VAZ100-021200-
MARINE

STATION/POSITION TIME  TEMP    WIND        PRES    WAVE   SWELL
                       AIR SEA DIR/SP/G            HT/PER HT/PER
                 (UTC) (F)     (DEG/KT/KT) (MB)    (FT/S) (FT/S)
CAPE MAY NJ      1024   33 39  320/ 25/ 37 1021.8
LEWES DE         1024   34 40  320/ 32/ 37 1022.0
15NM E FENWICK I 1050                        N/A     8/ 6
OCEAN-CITY-INLET 1024   35 43  340/ 15/ 18 1023.0
44089 WALLOPS IS 1056      41                N/A     3/ 3
WACHAPREAGUE VA  1030   36 45  350/  9/ 16 1022.6R
THOMAS POINT MD  1100   32 39  300/ 16/ 19 1024.9R
GOOSES REEF MD   1048   35 38  340/ 19/ 23 1023.6R
COVE POINT MD    1024   35     330/ 27/ 30 1023.8
SOLOMONS ISLAND  1024   35 40  340/ 10/ 13 1023.4
BISHOPS HEAD MD  1024   35 41  340/ 13/ 19 1023.1
PINEY POINT MD   1030          360/ 17/ 21   N/A
POTOMAC MD       1054   35 39  360/ 16/ 17 1023.9R
CAMBRIDGE MD     1024   35 40  320/ 17/ 24 1023.0
LEWISETTA VA     1030   36 40  350/ 11/ 17 1023.6R
RAPPAHANNOCK LGT 1030          330/ 27/ 30 1023.3R
YORK RVR RNG VA  1030   39     360/ 15/ 18   N/A
YORKTOWN VA      1030   38 43  330/  7/  9 1023.3R
DOMINION TERM VA 1018   40      20/  1/  7 1023.4
KIPTOPEKE VA     1030      43  360/ 16/ 24   N/A
CHES BAY BRIDGE  1030   40      10/ 19/ 24 1022.1R
CAPE HENRY VA    1030   40     340/ 23/ 25 1023.1R
S CRANEY ISL VA  1030   41     350/ 11/ 14 1023.1R
CAPE HENRY BUOY  1026      43                N/A     4/ 5
64NM E OF VA BCH 1050   43 51  340/ 23/ 31 1022.1R   8/ 6
DUCK PIER NC     1030   43     360/ 22/ 25 1021.9R
44056 DUCK FRF   1056      45                N/A     5/ 5
OREGON INLET NC  1018   43 50  360/ 12/ 17 1022.1
HATTERAS NC      1030   48 55   10/ 16/ 18 1022.0R
DIAMOND SHLS NC  1050   50 64   10/ 21/ 27   N/A     5/ 5
CAPE LOOKOUT NC  1100   48     350/ 13/ 16 1022.7R
$$



USA.gov is the U.S. government's official web portal to all federal, state and local government web resources and services.